Location: Hilton Head Island
(32.2163°N, 80.7526°W)
Time: 14:14:40
(UTC-04:00)

Vanguard 2 Rocket - Pass Details

Date: 19 February 2026
Orbit: 553 x 3286 km, 32.9° (Epoch: 10 March)

Event Time Altitude Azimuth Distance (km) Brightness Sun altitude
Rises 11:24:43 0° 234° (SW) 7,036 11.5 43.4°
Reaches altitude 10° 11:29:19 10° 232° (SW) 6,150 11.4 43.8°
Maximum altitude 11:49:13 66° 155° (SSE) 3,257 11.3 45.2°
Drops below altitude 10° 12:04:33 10° 78° (ENE) 4,919 10.7 46.0°
Sets 12:07:45 0° 75° (ENE) 5,623 10.9 46.1°
